Theta_e
311 312 313 313 313 312 312 311 311 311 313 312 310 311 312 312 307 306 316 319 313 314 318 321 323 324 325 327 332 332 334 335 340 343 341 336 339 342 344 349 352 350 351 355 353 354 358 359 360 360 358 361 362 362 361 363 365 365 366 364 362 361 361 361 363 362 358 360 362 366 371 368 364 369 375 375 374 377 377 370 361 365 369 363 366 366 366
310 311 312 313 312 312 312 312 312 313 313 313 312 312 313 313 311 312 312 316 317 317 320 323 324 327 327 330 333 334 335 337 340 336 335 334 339 339 344 348 349 349 351 350 354 354 357 359 360 361 361 361 360 359 359 360 363 364 367 368 366 366 363 361 358 361 363 366 366 368 368 368 367 366 375 374 373 375 374 374 376 375 374 374 373 367 364
308 311 312 313 312 311 310 312 312 313 314 314 314 314 314 315 312 313 312 314 315 323 327 326 328 328 330 329 332 334 334 335 335 334 333 339 341 339 342 348 344 345 348 352 350 354 355 360 363 363 358 360 360 358 359 357 360 362 363 364 361 358 354 356 355 354 356 363 368 367 370 371 369 368 371 372 374 374 374 373 373 375 370 372 368 366 364
307 310 310 311 311 311 310 310 311 311 312 311 313 312 315 313 312 314 314 314 317 323 327 326 330 332 333 333 334 334 334 336 337 337 337 339 342 341 341 345 347 349 352 349 352 353 355 358 362 360 359 358 357 358 357 358 362 363 362 360 357 353 352 352 353 353 354 354 357 367 371 371 370 369 369 371 371 373 373 372 372 371 370 371 368 366 364
306 310 311 310 310 309 306 307 310 312 313 315 316 316 318 320 318 315 312 316 322 326 329 326 328 332 332 332 333 333 336 338 337 337 336 336 336 338 339 344 348 348 348 351 353 355 357 359 357 359 359 358 353 357 354 356 360 359 359 358 355 354 354 355 356 357 356 354 354 357 366 371 371 369 370 370 371 370 371 370 368 367 371 368 367 366 365
306 310 311 311 306 299 302 312 316 316 315 316 315 316 320 322 322 319 323 323 327 326 327 327 329 330 332 333 336 338 337 337 337 337 334 338 338 338 338 342 348 350 353 354 355 356 357 357 356 357 358 356 358 357 357 358 358 357 356 357 356 353 352 356 356 358 356 353 352 351 353 363 371 370 369 370 371 371 372 370 368 368 367 367 367 366 365
305 308 310 305 300 301 311 316 318 320 318 319 318 321 321 324 324 324 324 324 327 327 327 329 331 331 332 336 337 338 338 339 335 334 336 338 339 338 339 344 347 347 350 351 356 357 357 357 356 356 356 357 356 358 358 354 354 355 355 354 353 353 353 355 355 356 356 354 352 351 351 348 345 359 371 371 371 371 371 369 369 368 366 365 367 366 365
312 308 307 298 301 312 314 315 317 321 322 323 319 318 323 323 323 325 324 327 327 329 330 331 331 332 334 336 339 342 343 343 334 335 334 336 340 343 346 347 350 348 349 351 354 355 357 355 355 355 355 355 354 353 354 353 353 355 353 353 352 350 350 355 353 355 355 354 352 351 351 351 349 346 357 369 369 370 369 369 371 371 371 369 367 366 364
304 308 306 304 311 312 313 314 316 319 317 318 318 312 317 325 325 326 325 327 330 330 327 329 330 332 334 334 334 342 335 335 335 336 335 336 339 340 346 345 347 351 350 349 351 354 355 354 354 354 355 353 353 351 350 351 352 351 350 350 351 349 347 350 355 356 355 354 353 352 351 350 346 345 342 346 368 371 367 368 370 370 370 370 369 366 364
311 307 304 306 305 303 308 318 322 326 324 324 324 322 317 326 327 328 329 328 330 331 330 330 331 332 330 327 329 336 336 336 336 335 335 337 341 341 345 346 345 346 348 350 351 350 351 352 353 356 355 353 352 349 348 349 350 349 350 347 348 351 348 350 353 354 355 356 355 354 353 351 349 349 352 351 348 357 366 367 369 369 370 370 369 367 364
309 308 305 305 303 306 314 317 320 324 324 323 324 318 312 323 327 328 329 327 328 329 331 328 328 326 323 325 329 334 333 333 335 333 334 336 339 342 343 345 341 343 346 349 350 351 353 350 352 355 354 352 351 349 348 349 349 349 348 349 351 350 349 351 353 357 357 357 356 355 354 353 353 351 349 346 351 352 364 369 369 369 368 368 367 367 365
308 307 304 303 311 310 319 320 320 322 324 324 318 305 308 321 327 329 329 330 331 330 331 330 329 327 323 325 331 336 338 339 336 334 335 337 339 342 344 345 344 343 347 348 349 349 350 352 355 355 354 352 351 350 349 349 347 347 347 347 348 350 350 352 355 356 356 355 354 354 354 355 355 353 352 352 350 349 354 364 367 368 366 365 365 364 365
308 308 305 307 313 322 326 326 325 324 324 321 308 303 315 326 329 332 331 332 334 334 333 332 327 329 331 335 338 338 341 341 342 342 342 342 342 343 344 345 349 343 344 345 344 345 350 354 355 355 353 352 351 350 350 348 346 347 349 350 349 347 348 349 351 352 355 352 350 352 356 356 358 359 355 351 351 354 356 363 365 365 364 362 363 363 363
306 308 306 307 314 322 327 330 325 326 318 307 306 323 331 330 330 332 333 329 328 327 328 333 334 336 338 338 339 339 340 342 346 344 344 343 343 344 347 349 348 346 345 346 348 347 349 351 352 354 354 350 351 351 349 348 349 349 351 350 350 350 349 347 347 350 350 352 351 351 350 353 352 351 351 349 349 349 345 348 352 363 362 363 362 362 362
310 311 307 305 299 319 330 328 325 333 320 320 327 330 331 329 329 331 333 332 331 332 332 336 336 337 338 338 338 339 340 342 343 343 343 341 341 342 345 345 346 346 345 345 346 347 348 353 355 354 353 351 350 351 349 351 353 352 350 349 349 349 351 351 350 347 347 349 348 353 353 353 351 350 352 350 348 348 347 346 346 348 353 360 360 359 359
308 307 306 306 316 326 331 329 323 329 331 332 333 331 328 332 333 333 333 333 333 335 337 339 337 337 337 338 339 339 339 341 341 341 342 344 343 344 345 346 346 346 345 345 349 350 350 352 353 350 351 349 350 350 349 352 354 352 351 351 350 349 349 350 351 350 349 348 348 349 353 353 351 350 350 350 350 350 351 350 347 344 346 348 355 357 356
317 313 315 322 327 328 331 331 330 332 334 335 336 335 333 332 332 336 334 333 334 336 335 333 332 331 333 334 336 337 338 339 341 339 339 340 340 343 343 345 349 348 346 345 345 347 349 351 352 353 351 349 348 349 352 354 351 352 352 350 349 346 349 349 351 352 352 351 350 346 346 352 353 352 352 351 350 350 351 348 347 345 347 347 349 354 356
325 325 325 326 328 329 330 332 333 332 333 336 339 338 334 335 333 334 333 334 334 333 334 332 330 330 332 334 335 335 334 336 339 344 344 345 342 340 341 344 347 349 350 349 348 348 350 351 352 354 352 350 345 348 354 354 352 351 351 350 349 349 348 348 348 349 350 352 352 348 350 349 347 349 351 351 351 351 353 349 347 345 344 345 348 352 355
319 308 327 327 328 331 332 330 333 334 334 334 335 335 334 335 336 336 336 334 333 334 336 334 334 334 335 335 337 337 339 340 340 342 342 340 341 342 341 343 346 346 345 347 346 347 347 349 352 352 351 350 350 350 351 353 351 351 352 349 346 347 348 348 348 349 348 349 350 351 349 349 350 352 353 353 351 351 351 353 353 350 347 348 349 352 353
321 318 326 329 331 332 332 331 330 329 331 332 334 335 335 334 333 333 334 335 333 335 334 335 334 334 335 335 335 335 335 337 339 340 341 340 339 341 343 344 346 344 345 343 345 345 347 349 351 350 352 349 352 352 350 351 353 352 350 348 347 346 346 348 348 349 349 348 349 350 350 347 347 349 351 353 351 348 347 350 352 355 354 354 353 353 354
323 327 328 328 330 330 330 330 329 329 329 328 331 333 334 334 334 334 335 334 335 335 334 335 334 333 333 334 335 335 336 336 338 340 339 339 340 341 341 342 345 343 344 344 345 344 345 348 350 350 350 354 352 354 354 353 350 348 349 349 348 347 346 346 346 348 349 350 351 351 350 349 347 348 348 349 349 349 353 354 354 353 352 354 357 361 363
315 317 322 327 319 321 325 327 328 328 330 329 329 331 330 331 331 332 332 335 336 335 334 334 333 332 333 333 334 332 334 334 335 336 338 340 336 338 342 342 343 343 343 343 342 344 346 347 346 347 348 352 355 354 355 353 351 348 346 346 346 346 346 345 344 346 347 348 351 350 348 350 348 348 346 339 341 348 348 348 340 333 333 349 354 358 358
314 322 327 330 329 327 327 328 328 329 329 329 327 330 330 329 331 333 335 333 331 330 331 334 332 330 331 331 332 332 331 334 337 337 336 336 339 338 339 337 339 339 339 339 340 342 345 344 341 342 344 347 352 351 353 355 352 350 347 344 343 345 347 347 346 346 346 347 348 347 348 349 349 347 348 346 320 324 335 348 334 319 314 320 325 330 350
321 328 329 331 329 325 327 329 329 329 331 330 329 331 331 332 332 334 334 332 330 331 331 332 332 331 330 332 332 330 331 331 333 331 334 334 334 334 336 337 338 337 335 337 337 339 343 342 339 340 339 344 349 345 349 352 355 351 348 346 343 342 343 345 346 346 347 346 343 344 347 349 349 348 347 347 350 323 317 321 322 317 313 312 313 316 320
323 329 331 332 330 331 331 332 332 333 334 336 334 332 331 333 334 335 334 334 334 333 331 331 332 334 333 332 332 331 330 331 333 330 333 336 330 333 333 334 336 335 337 335 336 337 338 339 337 338 339 344 346 345 347 347 349 351 350 347 346 345 343 343 344 345 347 347 344 341 343 345 345 347 346 345 346 347 335 312 313 316 315 312 309 310 313
326 329 330 331 329 330 330 332 333 334 337 335 334 334 337 337 336 335 333 334 333 333 332 331 331 332 334 332 331 329 331 330 332 333 330 331 330 332 332 332 333 336 334 333 333 334 334 336 335 335 336 337 343 343 339 342 345 345 350 351 348 347 345 345 342 342 343 345 344 342 342 342 344 344 344 346 348 349 347 341 336 321 311 308 309 309 309
326 327 328 325 326 329 330 330 330 332 334 335 334 334 335 336 336 333 334 333 333 333 332 332 332 332 331 331 332 331 329 331 331 332 331 330 331 332 333 333 332 335 332 330 334 336 335 337 335 336 335 336 346 345 343 341 342 341 345 350 351 349 347 346 345 342 342 341 342 342 341 342 344 344 342 344 346 346 345 346 347 345 345 334 313 307 323
326 326 325 321 322 326 329 331 331 332 334 334 335 333 332 333 331 331 329 329 329 330 332 332 332 331 331 330 327 329 328 329 327 328 328 329 330 331 333 332 330 331 330 330 333 337 336 335 332 332 332 336 343 344 341 339 338 339 341 345 348 352 349 347 346 345 344 341 342 342 341 341 342 343 344 343 342 344 343 345 348 348 349 343 335 318 311
324 323 325 327 329 332 331 331 332 331 331 332 331 329 329 328 327 328 327 327 330 332 332 333 332 331 330 330 328 329 328 328 328 328 330 332 332 331 332 330 329 327 329 331 329 331 332 333 332 332 333 338 341 342 339 339 338 337 338 337 339 352 351 350 350 348 348 347 344 342 341 342 341 343 343 342 340 340 342 346 345 345 347 334 329 325 322
324 326 327 328 329 328 327 326 326 326 326 327 327 326 329 326 324 327 326 327 327 327 328 330 330 330 330 330 330 329 329 328 330 331 331 330 331 331 331 331 329 329 329 329 331 331 331 330 331 333 335 337 339 340 336 338 335 336 336 339 339 340 341 349 353 353 354 349 344 340 340 339 340 340 340 338 338 339 339 341 343 343 345 336 334 330 328
324 325 325 326 326 326 325 325 326 325 325 325 325 324 324 325 324 324 325 324 326 325 325 326 327 328 328 329 328 330 330 330 330 329 329 330 332 333 333 333 328 326 327 329 332 332 332 332 332 334 338 340 340 341 339 334 331 331 332 334 337 337 339 344 343 348 350 350 346 340 339 340 340 341 339 339 340 339 339 341 343 344 345 339 336 335 333
321 322 322 323 324 324 323 325 325 324 324 323 323 322 323 323 323 324 325 325 325 327 327 327 325 326 328 328 330 330 330 330 330 330 329 330 331 332 333 332 332 331 331 333 333 333 332 332 332 335 339 338 337 341 339 333 330 327 327 332 334 335 335 334 333 335 338 345 348 347 342 340 341 338 337 338 340 339 343 344 343 344 345 341 336 337 336
320 318 320 322 322 322 322 323 322 322 322 322 323 324 324 324 325 325 324 325 325 328 327 325 326 327 328 328 329 329 329 328 329 330 328 330 329 331 331 329 331 333 333 333 333 333 332 332 332 334 336 337 339 335 332 329 329 329 329 332 333 334 335 332 331 331 333 334 341 347 348 346 343 341 339 340 341 343 344 345 344 343 343 345 344 342 335
321 321 322 323 323 321 321 322 323 322 323 323 324 324 324 325 325 326 325 325 326 325 326 325 326 326 327 327 327 327 326 325 326 326 326 328 329 330 331 330 332 333 333 333 331 330 331 332 333 333 335 336 334 330 329 330 333 334 335 332 331 332 333 331 330 329 328 330 336 343 349 348 348 346 344 343 343 343 344 344 343 343 343 344 348 344 324
324 324 324 322 322 323 323 323 323 322 323 322 321 323 325 327 326 327 324 324 324 326 325 327 328 327 327 326 325 326 325 323 323 324 326 327 329 330 331 331 331 331 331 332 333 332 334 334 335 334 334 331 330 329 329 331 334 333 334 334 333 331 331 331 330 329 329 330 335 339 342 343 346 347 346 345 343 341 342 343 343 342 342 342 344 333 324
323 324 324 323 325 323 322 322 324 324 323 323 322 322 325 326 326 327 326 327 326 326 327 327 327 326 325 326 325 324 323 324 325 326 327 329 330 330 330 329 329 327 328 329 332 333 334 334 334 335 333 331 329 331 334 332 331 334 335 333 332 331 331 331 331 331 331 331 331 333 338 343 345 344 344 345 345 344 343 343 343 343 342 342 343 337 326
325 325 324 324 325 326 325 325 325 324 324 324 324 323 324 324 323 326 325 327 327 327 326 327 325 324 324 325 325 325 326 326 325 325 326 328 328 329 328 328 328 326 326 324 329 330 331 332 332 334 333 330 332 334 336 333 331 331 333 332 332 332 329 328 329 328 328 331 331 332 333 337 342 346 344 344 344 344 343 342 341 343 343 342 344 336 327
324 325 325 325 325 324 325 324 323 325 322 322 324 324 324 324 325 325 325 325 325 325 326 325 325 325 326 326 325 323 323 323 323 326 328 328 329 328 326 326 325 325 322 325 331 331 330 332 332 334 334 333 334 333 334 334 334 329 329 329 330 331 329 328 327 328 328 330 332 334 333 333 333 335 341 350 345 346 343 342 341 341 342 342 343 339 330
324 325 326 325 325 324 324 324 323 324 322 322 323 323 324 325 324 323 324 325 325 325 326 325 326 325 324 323 322 322 322 323 326 326 326 326 327 326 325 326 327 328 328 330 329 329 331 332 334 333 332 333 335 334 332 331 333 331 330 331 331 330 329 328 326 327 328 330 329 329 332 333 334 334 335 339 344 343 341 343 342 340 342 342 342 341 333
323 323 323 323 322 324 324 323 323 323 323 323 322 322 324 324 324 324 324 324 325 327 325 325 324 323 322 322 322 322 324 326 327 327 326 326 326 326 325 325 328 330 331 332 333 331 332 334 334 333 334 335 334 331 330 331 332 330 330 330 329 328 327 327 326 325 325 327 327 330 329 331 333 333 333 335 337 342 341 342 343 341 341 342 342 342 340
323 323 323 323 323 323 322 323 323 324 324 324 323 325 326 325 325 324 322 323 325 326 326 325 323 323 323 323 323 324 325 325 326 326 327 326 323 322 319 318 326 328 327 327 331 332 332 330 330 326 328 330 330 331 328 331 330 328 329 328 327 325 324 324 325 325 325 325 326 326 327 329 329 330 330 331 334 336 339 341 341 343 343 342 342 342 342
322 323 322 323 323 323 323 324 324 323 323 324 324 324 324 324 324 323 325 325 325 324 325 325 324 325 324 324 324 323 324 325 326 326 327 325 323 320 318 319 326 327 330 331 331 330 328 328 329 329 328 328 329 331 331 330 328 326 326 325 324 324 323 323 324 325 326 327 326 326 327 327 326 327 329 331 330 331 335 338 341 342 342 343 342 342 342
321 321 321 322 322 322 323 324 322 322 322 324 324 325 325 324 324 326 324 325 323 323 324 324 325 325 325 324 324 323 322 324 324 325 325 325 326 326 324 324 328 329 332 331 331 328 326 327 327 327 330 330 329 331 333 328 326 326 326 325 325 323 322 322 322 324 324 325 325 326 327 326 326 326 326 327 329 330 331 334 337 341 341 343 343 343 343
317 319 321 323 324 326 325 324 323 323 322 323 325 325 325 324 325 324 323 323 323 324 323 323 323 323 323 323 321 320 321 322 322 321 320 320 320 323 327 325 324 326 330 327 326 323 322 324 323 325 332 332 333 332 328 325 324 324 324 324 323 322 322 322 322 323 322 324 325 325 325 327 328 328 328 329 330 332 332 331 333 338 343 344 344 343 343
319 320 320 320 321 322 324 323 323 322 323 323 324 324 324 324 325 324 323 323 324 324 324 323 323 323 322 321 322 321 322 323 323 321 318 317 317 318 323 327 325 324 325 328 325 323 322 322 324 330 330 330 329 331 326 322 321 321 322 321 321 322 322 322 322 323 324 324 325 325 326 326 325 326 326 326 328 329 330 332 333 334 339 344 344 343 343
318 319 319 318 319 320 322 322 323 324 323 322 321 322 324 325 323 324 325 324 323 322 322 322 323 323 323 322 322 323 322 322 322 323 323 321 318 321 323 324 323 325 326 327 325 322 323 326 327 327 327 326 327 326 324 324 323 322 322 322 322 323 323 323 323 323 323 323 324 324 326 327 327 327 328 328 327 328 330 331 332 334 335 337 342 344 344
318 318 320 320 320 320 321 322 323 321 320 319 317 318 320 323 322 321 323 324 324 323 323 323 323 324 324 324 322 321 318 318 319 321 322 321 323 323 324 326 326 326 325 323 322 322 323 325 327 328 330 332 334 330 326 323 322 321 321 321 320 320 320 321 322 321 322 322 323 324 326 326 326 326 328 330 329 328 329 331 333 333 334 336 340 341 341
318 318 318 320 320 320 321 320 319 317 318 318 318 318 320 321 322 322 321 321 321 322 320 321 322 323 324 323 324 324 322 319 314 317 319 319 319 320 320 320 321 327 327 325 325 326 325 325 325 325 325 325 328 326 325 323 322 322 321 322 322 322 322 322 322 321 321 322 323 324 323 323 325 326 326 326 327 329 329 328 327 330 332 333 335 338 342
320 320 320 320 319 319 320 319 318 317 317 320 321 320 321 321 320 321 320 320 320 320 318 319 320 321 322 323 323 319 320 323 320 316 319 319 319 319 320 323 325 326 323 322 321 322 324 324 324 324 324 329 325 323 323 323 323 323 323 323 323 323 323 323 324 324 324 323 323 323 324 323 323 325 325 326 328 329 330 330 331 330 330 332 331 334 338
319 318 318 319 317 318 317 315 314 315 318 318 318 319 320 318 315 315 316 315 316 317 316 316 316 318 319 318 318 319 320 322 322 322 321 320 321 323 323 323 323 324 324 322 322 322 325 326 325 325 326 324 323 323 323 323 323 324 324 324 324 324 324 324 323 323 325 326 325 325 325 324 324 324 325 326 328 329 330 331 331 332 332 331 332 333 334
319 318 316 318 317 318 320 319 318 320 317 316 317 316 317 315 314 316 315 315 315 315 314 315 316 316 317 317 318 317 319 320 320 322 320 320 323 323 324 323 322 323 323 322 321 321 322 322 321 324 324 324 323 323 323 323 323 322 324 323 324 325 324 324 324 325 325 325 325 325 326 326 327 326 325 324 324 325 327 329 330 330 330 331 334 335 334
317 318 318 317 316 317 318 317 319 321 320 317 316 316 315 315 315 314 315 318 316 314 314 314 314 316 317 316 317 318 318 318 319 319 320 321 321 322 323 325 323 323 322 322 321 322 322 322 323 325 326 324 324 323 324 324 323 323 323 323 324 323 324 324 324 325 325 326 325 325 326 327 327 326 326 326 326 325 326 326 328 329 329 330 331 332 334
Wind_Speed
10 11 7 7 8 7 6 5 8 9 9 8 8 6 5 6 6 3 7 9 3 9 5 12 8 4 9 13 15 10 10 9 6 5 3 3 6 4 6 2 3 4 2 3 1 2 4 4 5 4 3 4 3 2 3 3 3 5 6 6 6 8 7 6 7 6 8 6 6 6 5 5 6 5 2 3 4 5 4 4 5 3 1 3 3 8 8
8 10 11 8 9 9 8 7 5 7 8 5 6 8 9 6 5 6 5 7 12 6 10 9 8 8 10 11 10 12 13 10 6 9 9 9 7 7 5 6 7 4 4 5 1 1 2 5 4 4 5 5 4 3 4 4 2 2 1 2 2 2 2 4 9 10 8 6 6 7 7 7 7 6 3 3 5 6 5 3 3 3 4 2 5 9 9
7 10 10 12 10 7 9 5 7 10 8 2 2 7 7 10 11 8 6 10 10 7 9 12 10 8 10 12 15 13 13 13 12 9 9 11 9 7 6 6 11 12 10 5 4 4 2 3 4 2 5 4 4 4 3 3 2 3 3 3 3 3 4 5 5 2 11 9 5 8 8 7 7 7 5 5 6 6 6 5 4 4 5 3 7 7 9
5 6 10 10 7 10 10 9 7 10 10 9 4 2 5 4 8 10 16 12 7 7 8 8 13 16 19 17 14 11 8 10 10 12 11 9 9 12 9 9 5 6 7 8 8 6 5 2 3 4 4 5 5 2 2 1 3 4 4 4 5 5 5 5 4 6 4 7 12 7 9 8 7 7 6 6 7 7 6 7 5 5 6 5 7 7 7
5 7 6 9 10 9 10 9 8 8 11 6 0 5 10 12 8 7 7 6 6 5 2 9 13 17 17 13 9 7 7 7 8 10 8 11 13 15 17 13 9 10 10 8 7 8 6 5 3 3 3 1 2 2 2 1 2 4 4 5 6 5 4 3 4 2 2 6 1 11 7 7 7 7 8 8 9 9 8 8 7 6 6 6 8 7 8
4 15 11 6 4 7 4 2 6 8 7 6 9 10 12 12 10 9 8 5 4 10 16 14 15 14 10 9 5 6 6 6 9 11 10 11 7 8 9 13 7 7 6 7 6 6 7 7 7 6 4 4 2 3 1 3 3 4 4 5 7 7 5 2 2 4 5 5 6 3 10 10 4 8 8 9 9 9 8 8 8 7 8 8 8 8 8
4 7 12 8 7 5 1 1 5 6 7 4 9 13 14 14 11 12 10 3 9 15 16 7 8 10 8 8 9 7 8 7 7 8 9 5 3 2 6 7 6 3 3 5 5 6 5 6 7 6 5 4 3 2 1 1 2 3 3 2 3 4 5 3 2 2 2 3 6 7 7 1 11 13 6 8 9 8 9 9 9 8 9 9 8 7 8
6 7 2 6 2 7 4 3 6 3 1 11 9 14 13 12 8 9 9 8 9 12 17 10 8 6 5 7 7 5 7 5 5 3 4 7 5 3 5 8 6 3 5 4 5 4 5 6 6 5 6 5 5 4 3 1 2 3 5 4 4 5 1 4 4 4 5 4 1 2 4 6 5 6 13 5 9 8 8 7 7 8 7 7 8 8 7
7 6 5 6 6 12 7 9 8 7 7 2 4 7 8 9 5 5 7 8 9 10 13 9 6 1 4 9 8 6 8 7 8 8 9 9 8 7 7 8 10 8 7 7 6 5 5 7 6 6 4 5 5 4 4 4 3 3 4 5 5 7 7 7 3 4 3 5 5 5 3 4 7 7 5 15 7 7 8 8 8 9 8 7 7 7 7
5 7 7 5 4 7 5 9 10 16 11 8 12 10 10 14 10 8 7 8 7 5 8 9 7 2 4 7 5 6 8 7 9 9 11 13 11 11 11 9 8 7 7 9 7 7 8 8 6 4 3 3 3 3 3 3 3 1 3 4 4 5 7 5 2 1 2 3 4 6 6 6 6 6 5 2 11 10 6 8 9 8 7 7 7 6 7
8 8 6 5 3 3 4 9 8 11 8 6 5 4 6 4 5 5 5 6 5 2 7 7 7 4 2 4 6 7 8 8 8 8 8 6 9 10 10 9 10 10 11 11 10 8 7 7 6 4 2 2 2 3 2 2 3 4 3 2 1 4 5 7 5 2 3 4 5 6 7 6 6 6 8 7 6 9 8 6 7 7 7 7 7 6 7
7 8 8 3 5 2 6 5 3 0 2 5 4 7 4 7 7 5 6 5 5 4 7 10 6 3 0 3 4 5 6 7 8 7 6 6 7 8 10 11 9 9 8 9 9 8 7 5 4 5 4 1 1 2 3 2 4 4 4 4 4 5 3 1 4 6 3 3 3 6 6 4 5 4 2 3 4 6 10 5 6 6 6 7 8 7 7
6 7 8 2 6 4 10 11 9 7 1 2 6 7 5 5 3 3 5 11 10 11 9 8 7 6 6 4 2 3 5 5 7 7 6 5 7 8 9 10 10 8 9 9 9 10 7 5 4 5 4 3 1 0 2 2 4 5 4 4 5 7 6 4 4 4 2 3 4 3 5 7 5 5 5 4 2 5 8 6 5 6 7 6 8 7 8
7 7 8 2 8 10 16 13 8 7 5 5 4 5 7 9 10 8 9 12 11 12 7 3 7 5 3 5 3 3 4 2 3 7 8 6 5 8 9 9 11 10 8 8 9 10 10 9 7 5 5 4 2 1 1 1 3 4 3 3 3 4 4 5 5 5 4 5 3 2 4 8 7 7 6 6 5 2 5 11 10 4 6 6 7 7 7
6 6 5 3 1 5 12 13 4 10 5 2 4 8 12 14 11 6 6 8 9 11 11 5 9 8 6 4 4 3 3 3 5 8 7 7 7 7 7 9 9 9 8 9 10 10 9 8 7 8 8 8 6 4 4 3 4 5 5 3 2 1 3 4 4 4 0 2 3 5 1 3 7 9 7 8 6 5 3 1 8 10 4 5 6 6 6
6 5 4 5 3 7 8 7 4 5 7 8 9 9 12 11 9 7 6 5 5 6 7 8 10 9 8 5 4 3 2 3 6 7 6 5 7 7 7 8 8 9 9 8 7 8 9 8 8 9 9 9 9 7 7 6 2 3 4 4 5 5 4 3 4 5 5 1 2 4 3 3 2 5 6 6 5 5 6 4 1 5 9 7 3 6 7
5 5 5 3 6 5 5 5 7 7 8 7 6 10 11 10 8 7 8 8 6 5 8 11 10 10 9 10 8 5 4 5 6 5 5 5 6 5 7 6 7 7 7 9 9 9 8 10 9 8 7 6 7 7 5 5 6 4 5 5 6 6 5 4 4 5 5 6 5 3 2 2 0 0 4 5 5 5 6 6 5 5 5 6 8 7 7
15 9 8 7 3 2 4 5 6 8 10 8 8 10 10 8 9 9 10 9 8 9 8 9 10 10 10 10 8 8 6 5 3 4 4 5 6 7 7 7 7 7 7 7 8 8 8 9 9 9 8 4 4 6 7 6 3 4 4 5 6 6 6 6 5 5 5 5 5 5 4 2 4 3 3 3 5 6 6 6 7 6 6 7 8 6 6
5 2 1 5 7 4 8 7 7 8 7 7 8 9 10 9 9 9 9 9 9 8 7 7 7 8 9 9 8 6 4 4 4 5 5 5 6 6 7 8 8 7 8 7 8 9 9 9 8 7 6 5 3 3 5 6 5 5 3 3 4 6 6 6 7 7 7 6 6 5 4 2 3 3 2 2 3 4 4 6 7 8 9 10 11 9 7
4 5 5 3 3 3 5 4 5 9 9 6 6 6 8 10 9 10 11 10 11 8 8 8 8 8 7 8 7 6 5 4 4 5 5 6 5 6 6 7 7 7 7 8 8 9 8 8 8 7 4 2 4 3 3 5 5 5 4 4 3 3 3 5 6 7 8 9 8 6 5 4 4 5 4 2 4 6 6 6 5 6 6 6 6 6 6
9 9 6 4 3 6 5 3 4 5 7 9 8 6 9 9 8 6 8 8 6 6 7 6 7 7 7 6 6 6 5 4 5 5 5 5 6 6 7 7 8 7 8 9 9 8 8 7 7 8 7 4 5 6 4 4 4 5 6 7 5 4 3 2 6 6 6 6 6 6 6 5 6 6 6 6 6 5 5 4 3 3 2 4 3 3 2
6 5 8 11 6 5 3 2 5 5 5 9 9 7 7 7 9 7 7 7 7 6 5 5 5 7 5 4 5 5 5 5 5 5 5 5 6 6 6 6 8 9 9 9 10 9 6 7 8 7 8 5 4 6 4 3 2 4 5 6 6 6 4 3 2 5 6 6 6 5 5 6 6 6 7 7 6 6 7 6 7 8 8 8 7 5 6
4 8 10 10 1 7 8 7 8 9 9 8 7 4 3 5 6 6 7 7 5 4 4 3 4 5 5 5 4 5 5 5 5 6 6 6 5 6 7 8 8 9 9 9 9 9 7 7 8 9 7 6 6 7 5 2 3 3 3 4 5 4 6 3 2 3 3 5 6 5 7 8 8 7 6 9 15 16 12 7 6 12 14 16 14 11 6
10 11 9 7 5 5 10 11 11 9 6 4 3 5 4 3 5 6 5 5 5 6 6 5 5 6 6 5 5 5 6 5 6 6 6 6 6 6 6 7 7 8 9 9 9 8 7 7 8 8 9 8 7 8 8 6 3 2 4 3 5 6 5 5 6 5 4 3 1 6 7 7 7 6 7 7 6 10 12 11 7 5 9 14 16 16 15
8 8 10 8 5 5 6 8 7 5 5 5 2 1 8 6 6 7 7 6 6 6 6 6 6 6 6 6 6 5 4 5 4 5 6 5 6 7 7 8 8 8 8 8 7 7 7 7 8 8 8 7 7 7 7 7 9 6 3 3 4 4 4 5 5 7 6 1 4 4 6 5 6 6 7 6 7 5 3 3 7 9 7 8 10 14 13
7 7 6 6 6 5 6 6 6 5 8 6 5 4 2 6 6 5 6 6 7 6 7 6 6 6 6 5 4 6 5 5 6 4 5 6 6 6 7 8 9 8 8 8 8 8 8 9 8 8 7 8 7 7 8 8 8 9 7 3 3 4 3 3 4 5 6 3 2 2 2 2 4 3 4 5 5 4 4 5 4 4 4 6 7 7 7
7 7 7 5 6 9 7 7 5 6 9 13 11 8 4 3 5 3 5 7 7 7 6 6 5 4 4 4 4 3 5 4 5 5 6 7 7 6 6 7 8 9 10 9 7 7 9 8 8 7 7 8 7 7 8 7 8 9 10 6 4 3 7 6 3 5 4 4 4 1 3 5 5 5 5 4 4 6 6 6 6 6 6 5 3 5 5
4 2 4 4 4 8 8 5 6 6 7 9 13 13 11 10 10 10 9 8 8 7 6 5 5 3 3 3 4 5 5 6 6 6 6 7 7 7 7 9 9 9 9 8 7 7 8 8 9 9 8 8 6 7 8 9 8 9 8 9 6 3 1 3 4 4 5 4 2 2 3 5 5 5 4 5 5 5 6 6 6 4 3 2 2 3 3
0 1 3 4 6 12 16 10 9 8 8 9 11 12 12 8 6 8 7 6 5 5 5 4 4 3 2 3 3 3 4 5 6 6 6 6 6 7 7 9 10 10 9 8 9 9 9 8 9 9 8 7 7 7 8 8 8 8 8 8 8 3 3 3 4 4 4 3 3 1 4 5 3 4 4 4 4 4 6 5 3 4 2 4 3 3 3
4 7 5 5 8 10 12 11 10 9 9 8 7 6 8 12 7 4 7 7 6 5 4 3 2 3 2 2 2 3 4 5 6 6 6 7 7 7 7 7 9 8 8 7 8 9 9 9 9 8 8 7 7 7 8 7 7 8 8 8 7 6 5 2 2 4 3 3 3 7 6 6 5 4 4 5 6 5 6 7 6 7 5 4 3 3 3
4 1 4 5 5 4 5 6 5 5 6 5 5 6 5 7 7 5 6 5 5 4 3 2 3 3 3 3 3 4 5 5 6 7 7 7 7 7 7 6 8 8 8 8 9 9 9 9 8 8 7 7 7 5 6 7 7 7 7 7 6 9 7 2 5 6 4 3 7 8 5 6 5 5 4 6 6 5 7 8 7 7 7 5 5 5 5
2 4 6 6 5 6 5 4 4 4 3 3 4 4 4 5 5 5 5 4 3 3 2 3 4 3 3 4 5 5 5 6 6 7 8 7 6 6 6 7 8 9 8 8 8 8 9 9 9 7 7 7 7 6 6 7 7 7 8 9 8 6 7 11 7 7 7 5 4 5 10 9 8 7 6 7 7 10 10 7 6 6 7 5 6 7 7
5 4 7 5 4 3 4 4 3 4 4 5 5 4 4 4 4 5 4 2 3 2 1 2 2 3 4 4 5 5 6 6 7 7 7 7 7 7 7 8 7 7 8 7 9 9 9 9 9 8 8 7 7 8 8 9 7 7 7 8 8 8 7 8 9 9 7 7 5 4 4 6 7 6 7 9 10 8 6 6 5 5 6 5 6 7 9
6 1 7 9 7 4 4 2 2 2 1 4 4 4 5 4 4 4 3 0 0 2 2 2 3 3 4 4 5 5 6 7 6 6 7 7 8 8 8 8 8 8 8 9 10 9 9 9 9 9 8 7 8 9 9 9 6 6 6 7 8 8 8 7 8 8 7 6 6 4 3 4 4 4 6 5 5 6 6 5 5 5 5 5 4 4 11
4 3 3 2 4 7 7 5 3 3 3 4 6 7 5 4 3 4 2 1 1 2 1 1 2 3 4 4 5 6 6 7 7 8 8 8 8 8 7 8 8 9 9 9 8 8 9 10 10 9 7 8 9 9 9 9 7 6 7 7 8 8 8 8 8 8 7 8 7 6 5 5 3 3 3 4 4 6 6 5 5 5 4 5 1 6 8
2 3 3 1 6 3 1 4 5 2 1 1 4 4 7 4 4 3 4 3 1 1 2 2 3 3 4 4 5 6 7 7 8 8 8 8 7 7 7 8 9 10 11 11 10 9 10 10 10 11 8 8 9 9 7 8 8 7 6 8 8 9 8 8 7 6 6 7 7 8 6 5 5 4 4 4 4 4 4 3 5 5 5 5 4 6 6
8 4 4 2 2 6 8 5 2 2 3 1 2 2 3 3 2 3 1 2 2 2 2 3 3 4 4 5 5 6 7 7 7 7 7 7 8 8 8 9 10 10 11 11 9 8 8 7 13 17 11 9 8 7 7 12 8 8 8 9 8 8 8 9 8 7 7 7 7 8 8 6 5 4 4 5 5 4 4 4 4 5 6 6 5 5 6
1 2 2 2 2 3 2 1 1 4 4 5 4 2 2 2 2 2 1 1 3 3 3 3 4 4 5 5 6 7 8 8 9 8 8 8 8 9 9 9 9 10 11 9 8 9 8 12 18 12 8 8 7 7 8 11 14 11 8 8 8 8 9 9 8 7 7 7 6 6 7 7 7 7 4 3 4 5 5 4 5 5 4 5 6 4 6
2 2 2 1 1 1 1 1 3 4 5 4 2 2 4 4 2 2 4 4 3 3 3 4 4 6 6 7 7 8 9 9 8 8 9 9 8 9 9 9 9 10 10 10 12 11 10 11 9 9 9 8 7 7 9 13 15 9 8 8 9 8 8 8 8 7 8 8 8 7 7 7 7 7 6 5 5 6 7 8 7 5 5 5 5 5 6
1 0 2 2 2 1 1 2 4 4 3 4 6 5 5 3 2 4 4 5 5 4 4 5 6 6 7 8 8 8 8 8 8 9 9 9 9 10 10 11 10 10 10 13 11 10 11 15 11 7 6 5 6 7 8 13 14 9 8 8 8 8 7 8 8 9 9 8 8 8 7 7 7 7 7 6 6 5 5 5 7 6 6 5 5 5 6
3 3 3 3 3 3 3 3 3 4 4 4 4 4 4 5 5 5 6 6 5 6 6 6 7 8 9 9 10 10 9 9 9 9 9 9 10 9 11 12 9 9 11 11 9 10 13 11 8 9 8 8 8 10 9 13 11 9 8 8 8 9 9 9 8 9 9 9 9 9 9 8 8 8 8 7 6 6 6 5 5 7 8 7 7 6 6
6 6 7 6 5 5 5 5 5 5 4 5 5 6 6 7 7 7 6 6 6 7 7 8 9 9 9 10 11 10 10 10 10 10 10 10 10 11 12 11 8 9 12 13 11 12 11 10 9 8 9 8 8 13 15 11 8 9 9 9 9 9 9 9 9 9 8 8 9 10 9 9 9 8 8 8 8 7 7 6 6 6 7 6 7 7 7
4 5 6 6 6 7 7 6 6 7 7 7 6 6 6 7 8 7 6 6 8 8 8 8 9 10 10 10 10 11 10 10 10 11 11 10 10 9 11 10 8 9 14 11 10 9 10 9 9 8 12 11 10 13 14 10 9 10 10 10 9 9 10 10 9 9 9 9 9 8 8 8 9 8 8 8 7 8 7 6 7 6 5 6 7 7 7
7 6 6 5 5 4 4 4 6 6 7 7 6 7 7 7 7 8 8 8 8 9 9 10 10 10 10 10 11 10 10 9 9 9 10 11 11 10 9 9 9 11 16 11 9 11 11 9 10 14 18 16 15 16 11 10 11 11 11 10 11 11 11 10 10 9 10 9 9 9 9 8 9 9 8 8 7 8 8 8 7 6 6 6 6 6 6
6 5 5 5 5 5 5 5 6 7 7 7 7 7 7 8 8 9 10 9 10 10 10 10 10 10 9 9 9 10 10 9 10 10 12 12 13 12 9 10 11 10 12 15 11 12 11 11 14 19 16 15 13 13 8 10 12 12 11 12 11 11 11 11 11 10 10 10 10 9 9 9 10 10 9 9 9 8 8 9 8 7 5 6 7 7 6
7 7 7 7 7 6 5 6 6 6 7 8 8 8 8 8 9 9 9 9 9 10 10 10 9 9 9 10 11 11 12 11 11 11 11 11 13 12 11 13 11 11 16 17 11 12 12 16 17 17 18 18 18 13 11 11 11 12 11 12 11 10 11 11 11 11 10 10 10 10 10 10 10 10 10 9 8 8 8 8 7 8 8 7 6 6 6
8 7 7 7 7 8 8 7 7 8 9 9 10 9 8 9 9 9 8 8 9 9 9 10 10 10 10 11 11 11 11 11 11 10 10 10 11 12 12 13 14 16 13 11 11 11 12 13 15 18 16 14 13 9 10 12 12 13 13 13 13 13 12 12 12 13 12 11 11 11 11 11 10 10 9 10 11 10 9 8 8 8 8 7 6 6 7
8 8 8 8 8 8 8 8 8 9 9 9 9 10 10 10 10 10 11 9 9 10 11 11 10 11 11 12 12 11 10 10 13 11 9 12 12 12 11 10 10 13 14 14 16 15 16 17 18 17 15 14 10 9 11 12 13 13 13 12 13 13 13 13 12 12 12 11 10 10 10 9 9 10 10 10 10 9 9 9 9 8 8 8 8 7 8
8 8 8 9 9 10 9 8 9 9 9 8 8 8 8 8 9 9 8 9 11 11 11 11 10 8 8 7 8 10 9 7 8 10 9 11 11 11 10 10 12 12 10 11 13 12 14 15 16 17 19 15 12 12 12 12 13 13 13 14 14 13 13 13 13 12 12 12 11 10 10 12 11 9 9 9 9 9 9 10 9 9 9 8 9 8 7
9 9 8 7 7 8 8 8 10 9 8 8 8 7 7 8 10 10 10 10 10 10 10 10 10 9 8 9 9 9 8 8 8 9 9 11 11 9 9 11 11 13 13 11 12 12 13 15 15 15 13 10 11 12 12 13 14 13 13 14 14 13 13 12 12 13 11 11 14 13 13 13 12 13 11 9 9 8 8 8 8 8 11 10 9 9 7
7 7 8 8 8 8 8 8 9 8 8 9 9 9 9 9 9 9 9 10 10 10 10 11 10 10 10 11 10 9 8 9 9 10 9 9 10 12 13 11 12 11 11 12 12 11 11 11 11 11 11 11 11 11 10 10 11 13 14 14 14 13 14 13 11 12 12 12 11 12 12 12 11 11 11 11 11 10 10 9 10 11 10 8 8 8 9
9 8 8 8 9 8 8 8 7 6 7 8 8 8 9 10 10 10 10 12 10 9 9 10 10 8 9 9 9 9 9 9 9 9 10 9 9 10 11 13 10 10 11 11 12 12 11 11 10 11 13 10 9 9 10 12 10 10 11 12 13 15 14 13 14 14 14 14 13 12 11 10 11 12 10 10 10 11 11 10 10 9 9 9 9 9 9
Wind_Direction
236 255 245 208 236 250 271 223 259 240 216 244 272 259 275 262 267 144 180 234 171 134 136 72 65 12 87 81 83 84 89 87 67 23 356 34 52 23 17 26 265 334 324 123 35 267 261 183 186 187 213 239 220 169 185 211 195 189 178 173 181 190 203 238 250 228 227 235 194 185 180 195 222 245 223 153 124 106 89 104 138 143 180 158 141 109 106
249 257 261 265 245 213 228 258 233 261 267 254 251 259 257 281 300 272 197 156 116 134 98 94 83 39 69 95 87 78 72 72 54 41 36 29 8 14 13 355 335 342 328 9 37 319 309 259 217 192 209 216 225 202 167 185 161 85 187 177 135 117 105 28 354 315 254 225 187 185 191 193 203 218 193 146 125 126 127 131 147 157 149 212 114 121 126
258 253 253 249 250 271 269 239 250 246 242 249 315 335 329 353 337 326 48 93 101 89 101 100 93 78 67 72 64 50 49 45 39 24 21 18 3 345 352 36 2 345 323 29 335 349 335 289 272 227 252 232 230 226 217 187 177 101 79 112 120 108 111 116 116 10 311 286 208 186 188 186 196 202 183 160 138 137 143 156 183 159 156 175 128 135 140
264 276 282 281 262 249 246 254 243 263 266 249 210 325 355 324 357 19 29 33 18 69 115 124 97 73 66 57 57 55 35 34 32 29 20 7 347 346 359 27 340 324 338 355 355 355 352 315 287 319 337 336 312 238 264 203 124 112 119 120 125 143 180 179 183 191 171 343 312 239 179 186 190 195 180 160 153 152 157 171 174 163 167 164 138 148 153
298 311 277 254 261 255 241 246 262 267 274 288 224 93 46 30 3 36 35 67 91 257 185 122 84 74 72 75 63 67 56 34 28 30 13 5 359 9 353 348 343 10 355 350 349 346 349 354 332 289 309 27 310 355 332 34 110 115 128 146 148 164 175 155 174 233 162 138 157 301 260 185 188 190 179 165 163 164 171 176 173 176 172 158 158 167 164
299 294 286 307 289 262 269 293 344 347 8 35 47 39 43 45 53 52 75 103 36 55 34 21 58 71 80 99 114 76 56 25 17 1 30 40 26 17 346 311 359 24 338 338 8 349 356 358 0 358 3 358 16 86 183 83 108 136 132 154 168 174 166 148 215 186 156 145 138 140 323 311 236 189 181 171 169 169 168 174 175 172 173 172 174 176 166
261 260 268 253 249 262 109 62 12 351 300 118 83 68 55 52 61 77 82 76 50 71 86 96 86 84 98 95 85 71 56 50 40 17 12 31 56 10 290 299 329 14 317 331 351 21 1 6 11 2 12 354 70 115 195 191 155 136 161 159 143 122 131 123 172 206 161 166 165 155 154 171 310 298 205 170 172 171 174 176 173 170 179 180 176 175 168
262 268 274 270 306 14 52 281 165 127 28 57 128 76 55 64 77 94 104 83 66 84 103 93 56 67 73 72 53 30 52 48 49 10 13 360 28 312 263 265 269 345 347 321 32 27 13 27 4 27 22 28 43 24 353 316 247 187 143 158 137 117 207 165 161 188 178 169 171 119 152 142 144 275 288 218 175 177 174 171 168 169 178 178 171 174 170
286 290 298 281 234 263 21 357 11 46 41 58 59 94 56 51 66 67 91 83 80 92 97 110 107 326 59 57 48 71 74 61 45 13 3 353 37 347 325 347 357 10 337 338 22 15 47 28 22 17 42 39 25 24 359 342 313 253 194 176 164 162 187 234 181 175 174 143 148 129 120 129 150 174 245 289 255 181 176 170 169 174 178 175 163 165 171
264 265 278 260 347 313 75 116 44 24 48 63 115 112 82 29 33 33 54 73 83 68 112 124 117 245 44 53 53 65 82 59 54 45 25 7 3 360 354 354 345 349 6 358 5 10 23 39 21 31 54 56 55 35 25 3 345 303 233 231 199 188 176 193 247 227 156 156 156 145 146 160 170 165 162 230 296 292 204 171 170 173 162 158 155 162 173
283 274 263 281 313 99 305 14 40 110 125 143 117 126 77 345 13 67 89 102 111 149 127 128 91 61 298 130 91 42 55 65 55 56 50 8 358 347 358 358 356 8 4 1 0 23 37 23 18 30 44 69 83 91 53 65 69 73 75 79 170 234 187 163 175 170 163 160 155 143 136 146 160 172 167 172 212 273 264 173 164 162 159 156 157 165 173
249 277 281 304 99 99 13 20 40 297 102 230 196 251 211 254 234 174 167 118 65 64 115 141 143 104 289 77 39 40 53 61 62 63 51 21 1 358 6 360 5 6 16 9 2 11 16 17 15 12 14 106 30 63 98 73 85 82 79 54 32 37 27 134 157 145 135 114 142 134 130 143 176 170 127 116 134 211 256 223 161 165 163 170 168 169 165
287 266 270 210 129 63 8 3 337 332 297 184 245 246 183 200 216 12 45 70 55 31 32 54 71 85 171 195 265 10 27 37 54 62 59 30 12 2 7 6 353 10 10 12 356 10 23 21 14 7 11 27 343 244 136 103 89 112 104 76 62 46 17 29 45 90 88 83 88 74 130 139 155 130 111 99 52 283 261 255 185 169 174 159 170 160 161
275 293 281 57 78 32 358 337 336 358 301 249 292 59 71 76 40 19 53 75 82 94 60 343 108 136 127 79 54 38 37 357 354 52 42 23 29 16 15 359 13 18 10 7 12 10 15 19 4 3 1 10 50 352 312 229 145 137 143 121 121 120 101 55 356 18 27 68 6 289 179 131 133 122 125 136 133 102 345 312 296 191 161 157 159 155 167
299 278 315 289 120 343 336 334 332 22 353 103 136 118 111 122 157 153 110 108 126 129 129 163 117 120 115 122 104 75 20 340 40 53 48 39 30 26 14 20 21 7 12 14 20 11 16 18 13 12 2 7 6 11 350 260 181 167 147 175 151 123 109 128 134 109 247 36 276 286 309 140 138 134 138 145 141 134 143 245 292 300 265 174 159 154 162
304 329 20 43 331 291 323 358 22 30 65 113 130 129 118 128 131 129 112 115 114 100 111 125 120 118 119 106 94 63 358 37 62 65 61 44 47 42 34 28 20 16 20 15 20 14 15 14 20 27 7 3 4 4 1 338 297 207 211 200 217 192 186 173 159 150 131 144 288 307 335 344 4 110 130 132 129 134 137 145 233 285 289 306 275 178 166
30 50 79 188 232 270 316 33 71 95 114 118 104 108 112 114 118 129 123 130 144 163 145 129 126 123 121 122 124 111 98 75 72 75 58 54 64 52 39 28 20 17 18 18 14 20 19 16 18 41 42 14 347 344 346 349 356 283 225 226 225 228 213 199 205 189 180 178 175 202 270 313 7 95 150 140 132 134 132 136 148 193 232 263 249 221 184
98 93 125 187 207 12 33 65 65 89 85 78 94 102 109 111 123 132 132 142 148 152 133 123 127 125 126 116 111 106 92 83 82 80 76 57 40 38 36 23 17 16 8 13 10 9 16 12 24 35 43 43 348 319 349 3 349 330 292 267 236 229 223 224 229 234 231 213 191 193 205 247 263 253 230 167 141 153 164 165 168 190 209 219 253 236 196
152 36 219 151 109 72 83 72 70 73 68 76 102 112 103 114 114 100 94 107 112 107 109 108 110 113 119 118 113 113 114 92 73 55 46 56 44 31 30 21 10 13 3 9 5 10 6 6 10 47 59 9 318 358 346 5 349 331 299 236 268 277 255 236 225 216 222 227 215 210 207 219 268 267 249 208 143 177 186 175 177 185 197 205 211 218 193
68 153 184 147 94 79 84 107 139 137 131 130 105 103 106 108 113 116 120 123 122 133 128 130 126 126 116 110 108 97 77 66 49 47 40 35 34 22 24 20 12 7 1 3 355 2 6 3 2 8 89 32 348 349 20 339 345 331 335 322 298 268 279 274 256 234 230 219 216 212 200 203 236 254 272 247 212 215 202 196 191 189 207 217 219 220 207
105 110 147 156 156 127 98 88 41 37 74 68 31 87 118 116 107 114 119 114 121 126 120 131 124 105 99 91 104 101 91 67 46 46 20 24 16 11 9 12 12 358 359 353 351 354 0 2 2 355 6 58 351 2 24 29 13 347 330 320 303 286 253 263 264 264 252 248 222 220 211 201 216 229 223 220 228 254 259 243 211 233 272 276 275 282 285
128 163 173 168 154 172 119 161 141 139 121 135 143 128 114 130 140 157 147 126 117 113 125 118 110 98 94 91 81 86 71 57 44 35 14 17 6 2 1 6 5 356 357 350 344 343 359 7 356 351 342 47 16 351 358 29 5 5 343 328 331 315 304 240 229 246 237 238 244 238 241 229 219 224 230 235 237 233 246 237 222 215 222 239 244 244 248
159 176 172 193 151 132 166 184 170 164 168 161 160 174 192 184 187 177 149 146 140 139 136 135 129 132 133 119 116 106 87 58 31 14 2 360 358 357 357 358 356 353 350 346 337 339 3 6 356 343 340 356 29 3 357 351 1 2 330 335 322 317 316 309 236 213 225 240 241 240 233 235 227 224 230 228 223 223 227 245 237 230 228 236 251 270 259
86 142 164 185 170 161 166 183 166 182 180 207 236 228 194 169 157 160 148 140 136 132 138 121 100 96 93 78 70 59 56 51 22 4 347 341 1 352 357 347 347 346 343 341 329 341 356 5 350 341 340 345 22 10 355 356 353 298 322 329 321 317 318 316 315 293 228 195 223 269 256 237 228 224 231 241 237 225 231 239 255 248 241 240 242 245 253
100 128 158 186 189 181 176 176 172 160 139 122 102 21 141 140 137 131 132 130 127 123 102 84 72 50 55 53 41 52 27 27 22 358 331 344 356 0 348 343 342 343 338 328 326 342 347 358 352 341 339 340 26 10 354 351 338 324 262 293 297 288 291 307 318 312 299 223 156 210 263 259 257 252 241 236 244 235 253 253 231 230 237 248 245 246 246
135 124 142 159 170 135 129 122 132 163 139 114 108 350 137 150 140 129 132 137 125 105 95 91 77 56 45 43 33 19 11 11 346 349 352 344 351 353 344 338 338 330 331 326 340 335 345 354 350 340 341 339 6 6 358 346 334 330 320 240 282 288 300 307 321 307 310 315 125 116 110 299 297 258 249 245 249 252 192 196 238 265 265 222 221 218 235
92 150 151 168 147 127 165 159 174 166 135 140 156 175 202 123 124 170 121 123 113 106 102 95 88 87 60 31 8 40 346 344 342 358 351 340 348 342 336 330 329 330 323 331 329 332 354 350 343 338 345 339 356 3 351 340 335 326 320 310 221 279 284 292 290 290 292 326 323 247 211 230 237 259 266 274 277 257 249 245 229 219 210 208 214 198 212
28 58 153 183 166 145 144 172 169 178 158 147 148 156 167 175 180 161 133 103 83 81 73 67 67 66 67 62 4 14 346 352 346 344 344 337 333 325 330 329 333 327 330 327 323 348 353 341 338 338 341 334 345 354 346 340 332 321 314 316 312 199 242 245 245 263 271 257 207 286 265 241 249 249 250 257 263 259 248 250 255 251 243 145 140 97 69
247 190 338 76 116 124 158 179 170 167 156 163 171 167 163 142 117 145 125 108 112 122 122 113 108 63 20 54 6 357 336 336 332 335 329 323 316 321 324 335 331 329 326 329 335 340 336 332 334 334 331 328 340 347 336 335 323 314 314 316 317 296 202 214 222 231 252 280 312 292 269 265 256 260 249 221 207 247 279 270 291 286 264 109 104 53 57
49 41 57 86 127 134 146 157 162 163 157 157 154 155 138 126 141 161 149 156 134 115 106 127 87 99 56 38 7 352 333 332 326 323 320 316 321 316 324 332 327 321 324 332 334 331 327 329 327 325 318 327 334 336 330 326 315 312 313 311 310 324 338 322 243 250 229 139 258 275 284 291 292 285 303 299 296 300 295 283 252 248 232 153 180 138 195
70 155 132 156 150 147 134 116 117 139 139 149 171 157 144 128 115 84 70 82 88 81 65 70 85 40 25 13 352 333 329 323 324 319 315 314 310 314 319 328 321 321 321 323 325 322 321 319 317 307 315 323 328 325 328 317 314 320 317 312 317 325 323 242 302 294 262 210 170 175 252 270 277 283 269 261 249 254 243 240 245 247 235 169 179 183 196
202 192 133 99 100 118 119 124 140 103 104 97 79 116 147 142 124 114 105 88 77 77 72 48 20 10 355 353 328 331 318 320 311 311 309 302 308 322 329 318 310 308 308 312 316 318 313 308 304 310 318 316 311 328 321 323 327 320 314 317 322 322 331 331 318 310 314 273 226 183 172 204 214 211 247 261 240 224 221 220 242 255 255 194 184 193 164
260 152 111 115 140 144 135 145 142 160 179 132 82 52 57 93 94 97 93 75 126 130 102 50 1 358 333 326 315 316 318 315 307 299 308 322 329 322 315 310 306 306 307 309 309 308 306 306 311 315 308 305 328 331 330 327 317 309 315 323 318 316 320 313 308 305 294 294 272 215 218 182 181 194 221 228 230 227 228 228 223 243 264 259 211 193 161
285 321 123 160 209 173 174 180 147 194 82 114 138 163 119 89 103 111 103 114 45 88 48 13 340 333 319 308 323 327 314 306 307 316 318 314 311 308 306 305 306 305 303 304 302 304 306 305 304 304 308 331 334 328 322 313 309 318 322 319 317 315 310 308 305 302 296 288 298 296 236 217 235 202 185 214 242 250 240 226 237 244 263 272 287 131 151
339 10 7 107 180 186 189 166 196 213 192 176 202 179 136 128 158 119 88 346 283 71 318 289 298 297 307 327 318 307 312 311 311 309 307 302 296 297 302 302 303 303 301 299 299 294 296 297 293 297 331 333 325 318 314 317 323 320 319 314 308 305 301 298 295 293 297 296 290 283 286 292 263 223 234 222 219 241 247 235 242 239 253 268 297 120 159
262 148 230 342 340 19 123 169 160 169 220 216 8 52 142 166 155 151 179 204 203 237 262 262 274 295 307 298 304 310 308 304 299 295 293 297 302 311 309 307 304 299 296 293 294 294 286 285 299 331 339 324 317 311 315 320 318 317 310 307 302 297 294 286 286 285 295 305 309 311 303 273 267 261 233 237 236 243 261 257 235 230 245 248 256 139 148
51 53 23 18 1 46 58 54 76 107 95 349 345 325 123 160 181 143 196 212 219 241 259 273 301 289 298 308 304 293 288 290 296 300 302 306 308 303 298 294 293 290 291 286 285 290 300 314 317 319 318 305 303 305 312 318 314 304 301 297 291 296 303 307 305 302 294 286 285 282 283 282 263 254 237 246 239 238 253 270 259 227 231 237 236 134 146
17 71 65 59 357 57 58 344 248 141 171 215 212 253 329 310 229 257 240 261 252 250 268 284 282 289 284 285 286 288 293 297 298 300 299 298 297 298 297 294 293 293 292 293 311 310 306 299 298 295 286 288 292 299 306 305 300 300 294 297 299 300 296 295 295 292 292 289 290 292 294 293 292 284 267 216 244 227 198 221 250 271 254 228 237 167 157
58 84 121 91 42 0 171 246 280 313 314 345 79 185 215 242 286 290 269 263 278 279 265 270 282 283 284 286 287 292 291 294 296 297 299 298 296 291 289 289 286 285 286 288 286 282 282 281 276 276 275 271 283 291 302 300 297 294 292 290 290 287 289 294 300 309 306 302 294 290 292 291 292 292 282 255 218 209 215 210 211 226 247 247 239 192 162
325 118 223 233 243 215 234 278 306 320 292 284 301 338 0 354 277 269 277 280 282 287 284 286 288 285 289 287 289 290 295 295 295 294 293 292 291 288 287 281 277 273 271 269 263 261 275 282 283 287 288 297 295 296 296 294 294 290 289 288 293 298 302 302 300 296 298 298 296 295 291 287 279 278 270 266 264 249 251 229 201 207 218 229 232 223 187
313 315 320 322 309 307 294 302 300 306 343 340 312 295 299 285 288 284 275 281 296 296 293 286 281 281 283 287 288 290 293 293 290 288 286 287 285 287 289 289 293 294 294 299 312 317 315 309 299 298 293 291 290 286 284 288 288 287 291 299 300 297 298 295 293 294 293 295 295 294 291 292 292 290 288 289 277 265 254 249 229 206 207 217 227 227 221
331 317 305 287 288 284 287 285 282 269 268 271 268 271 281 287 284 282 288 292 290 292 291 289 287 287 290 290 290 288 286 286 285 282 279 279 283 287 285 283 284 283 284 289 287 282 283 283 282 283 285 282 272 278 281 283 290 297 296 293 294 294 294 295 291 288 288 288 293 295 294 291 291 290 288 285 283 274 261 247 240 242 234 225 211 217 215
341 314 305 305 301 293 294 288 284 288 292 291 295 294 284 280 277 275 284 291 288 286 288 288 289 290 290 290 291 289 288 287 286 283 277 269 268 266 275 282 281 277 277 272 270 274 280 277 273 267 274 278 281 282 287 291 292 291 291 291 290 291 289 286 286 286 285 285 282 281 285 287 286 286 287 287 290 292 284 267 247 239 234 230 226 220 223
343 340 341 331 322 345 339 330 314 307 296 289 287 288 285 283 285 292 286 282 281 279 279 281 283 282 282 282 282 282 282 281 281 285 291 292 286 278 271 274 278 284 285 286 287 290 287 287 286 281 270 271 281 292 291 286 284 282 282 283 285 286 286 284 283 283 282 278 277 277 277 277 281 282 278 273 265 263 266 269 266 247 237 237 230 232 233
322 340 325 327 325 311 298 294 295 291 294 298 296 290 288 285 282 279 279 276 274 276 275 276 277 278 281 280 280 283 284 284 283 286 287 287 287 287 286 293 298 304 303 302 300 297 293 292 293 303 306 301 297 294 289 287 285 282 281 283 283 282 280 280 278 277 275 273 271 272 272 271 272 271 273 278 281 280 282 286 287 284 252 227 231 230 227
315 314 319 317 307 307 308 303 301 294 287 284 285 279 275 272 269 267 266 270 272 273 276 276 277 281 284 287 287 287 286 284 282 277 274 279 285 292 296 289 287 282 286 290 290 294 297 297 288 279 279 284 283 282 278 281 279 279 277 279 279 279 277 277 275 273 272 273 272 267 265 264 263 264 268 268 270 271 263 261 261 258 257 246 232 227 230
300 297 295 297 299 297 297 294 292 293 293 289 283 283 281 283 285 286 284 284 284 289 288 285 279 275 275 274 277 279 281 282 280 276 279 281 277 280 286 287 295 295 302 305 312 308 303 299 299 300 296 288 275 268 272 276 278 279 280 278 278 276 276 275 274 273 271 270 269 271 274 277 280 279 277 278 280 283 284 278 269 274 277 268 242 223 222
296 295 294 298 298 298 295 296 294 286 284 285 285 282 278 273 273 274 278 281 287 286 284 280 275 266 260 259 256 254 258 271 287 290 299 300 304 305 301 298 309 322 320 310 305 301 301 302 302 300 298 298 296 293 292 287 284 281 277 273 271 272 272 272 272 272 272 272 271 272 269 264 257 254 253 256 259 261 258 261 267 265 258 260 256 238 225
288 291 290 282 280 279 283 287 287 284 279 276 280 288 299 308 314 307 302 289 276 267 270 273 276 278 282 287 300 300 299 300 297 299 303 297 295 297 304 311 315 313 309 302 298 297 296 296 297 296 295 290 286 285 281 280 280 279 278 276 276 273 271 271 273 278 280 281 282 279 277 275 271 267 263 259 252 251 254 256 252 249 257 262 264 255 240
295 296 294 301 301 299 296 291 287 289 297 297 290 287 286 288 286 287 288 289 291 289 285 281 285 292 298 296 292 292 286 288 292 292 296 299 305 303 302 299 297 296 292 290 292 292 291 292 292 293 296 299 298 297 295 291 286 283 282 284 282 278 271 270 270 266 264 266 268 269 272 275 279 279 282 284 280 274 272 277 280 267 242 236 253 268 267
292 291 291 292 291 284 279 270 270 278 287 292 295 300 303 296 290 289 288 292 292 294 298 299 298 296 294 292 292 295 305 305 302 306 306 305 302 301 299 301 303 303 299 294 292 291 291 289 289 294 299 294 292 291 292 294 296 293 288 282 280 279 282 279 274 269 265 262 261 265 265 266 262 257 258 262 267 270 267 259 261 268 275 270 258 251 253
291 280 270 270 271 278 286 290 293 293 292 289 287 284 284 286 289 288 286 288 290 292 295 296 292 285 287 296 302 303 303 306 309 310 311 310 310 307 312 318 322 317 313 308 306 302 298 293 290 287 286 288 292 290 288 287 287 289 289 285 282 281 279 277 277 279 281 279 273 270 267 265 268 270 265 257 252 252 255 262 265 264 260 261 260 258 260